Location: Newark
(50.0306°N, 2.3272°E)
Time: 19:51:00
(UTC+00:00)

Vanguard 1 Rocket - Pass Details

Date: 18 December 2019
Orbit: 650 x 4226 km, 34.3° (Epoch: 20 January)

Event Time Altitude Azimuth Distance (km) Brightness Sun altitude
Rises 18:50:27 0° 233° (SW) 8,460 13.2 -27.7°
Reaches altitude 10° 18:57:06 10° 227° (SW) 7,305 12.6 -28.8°
Maximum altitude 19:17:53 41° 168° (SSE) 4,035 10.4 -32.1°
Enters shadow 19:22:57 35° 137° (SE) 3,867 10.1 -32.9°
Drops below altitude 10° 19:30:42 10° 105° (ESE) 4,646 - -34.1°
Sets 19:33:49 0° 98° (E) 5,252 - -34.6°
